HVN979 VVTS-VABB

Flight info

Callsign HVN979
Flight time N/A
Altitude 38000
Route SAPEN5K SAPEN R468 ELMOP P629 MUBUS M633 TANEK L301 SADUS/N0485F400 L301 BUSBO L505 OPAKA EMRAK2A
Aircraft A359/H-SDE2E3GHIJ3J4J5LM1ORWXY/LB1D1

Departure

Time 2026-05-07 08:40
Airport Tan Son Nhat International Airport (VVTS)

Arrival

Time N/A
Airport Chhatrapati Shivaji Maharaj International Airport (VABB)
Time Latitude Longitude Altitude Speed Heading
2026-05-07 07:54 10.81837 106.66573 43 ft 0 kts 159°
2026-05-07 08:29 10.81854 106.66566 41 ft 4 kts 159°
2026-05-07 08:30 10.81880 106.66556 39 ft 4 kts 159°
2026-05-07 08:30 10.81901 106.66547 42 ft 4 kts 142°
2026-05-07 08:30 10.81915 106.66527 40 ft 4 kts 93°
2026-05-07 08:30 10.81910 106.66501 43 ft 4 kts 68°
2026-05-07 08:31 10.81901 106.66480 42 ft 1 kts 69°
2026-05-07 08:35 10.81904 106.66487 43 ft 4 kts 69°
2026-05-07 08:36 10.81920 106.66530 43 ft 8 kts 69°
2026-05-07 08:36 10.81942 106.66587 43 ft 9 kts 69°
2026-05-07 08:36 10.81967 106.66654 43 ft 11 kts 69°
2026-05-07 08:36 10.81986 106.66704 43 ft 12 kts 69°
2026-05-07 08:37 10.82017 106.66786 43 ft 13 kts 69°
2026-05-07 08:37 10.82057 106.66874 42 ft 14 kts 53°
2026-05-07 08:37 10.82138 106.66945 40 ft 16 kts 39°
2026-05-07 08:37 10.82219 106.67003 42 ft 8 kts 23°
2026-05-07 08:38 10.82274 106.67002 41 ft 9 kts 340°
2026-05-07 08:38 10.82326 106.66960 41 ft 9 kts 306°
2026-05-07 08:38 10.82347 106.66930 41 ft 6 kts 299°
2026-05-07 08:38 10.82345 106.66889 41 ft 7 kts 257°
2026-05-07 08:39 10.82309 106.66790 39 ft 35 kts 249°
2026-05-07 08:39 10.82137 106.66338 39 ft 100 kts 249°
2026-05-07 08:39 10.81817 106.65497 43 ft 154 kts 249°
2026-05-07 08:39 10.81389 106.64346 239 ft 183 kts 251°
2026-05-07 08:40 10.80997 106.63168 1001 ft 170 kts 251°
2026-05-07 08:40 10.80645 106.61980 1426 ft 182 kts 252°
2026-05-07 08:40 10.80250 106.60708 1736 ft 198 kts 248°
2026-05-07 08:40 10.79698 106.59354 2015 ft 217 kts 245°
2026-05-07 08:41 10.79082 106.57858 2309 ft 241 kts 247°
2026-05-07 08:41 10.78432 106.56205 2704 ft 261 kts 248°
2026-05-07 08:41 10.77447 106.54632 3298 ft 269 kts 222°
2026-05-07 08:41 10.76251 106.53152 3962 ft 275 kts 246°
2026-05-07 08:42 10.75950 106.51242 4535 ft 279 kts 280°
2026-05-07 08:42 10.76742 106.49480 5142 ft 277 kts 315°
2026-05-07 08:42 10.78346 106.48468 5812 ft 273 kts 346°
2026-05-07 08:42 10.80173 106.47886 6395 ft 279 kts 340°
2026-05-07 08:43 10.81891 106.46929 7025 ft 284 kts 328°
2026-05-07 08:43 10.83417 106.45624 7671 ft 289 kts 318°
2026-05-07 08:43 10.84790 106.44108 8346 ft 293 kts 312°
2026-05-07 08:43 10.86069 106.42471 9014 ft 297 kts 309°
2026-05-07 08:44 10.87300 106.40760 9675 ft 302 kts 307°
2026-05-07 08:44 10.88514 106.38994 10196 ft 310 kts 306°
2026-05-07 08:44 10.89762 106.37135 10487 ft 326 kts 306°
2026-05-07 08:44 10.91056 106.35183 10759 ft 342 kts 306°
2026-05-07 08:45 10.92408 106.33127 11021 ft 357 kts 305°
2026-05-07 08:45 10.93787 106.31020 11375 ft 367 kts 305°
2026-05-07 08:45 10.95208 106.28841 11873 ft 371 kts 305°
2026-05-07 08:45 10.96640 106.26645 12395 ft 375 kts 305°
2026-05-07 08:46 10.98088 106.24423 12932 ft 378 kts 305°
2026-05-07 08:46 10.99547 106.22183 13439 ft 381 kts 305°
2026-05-07 08:46 11.01016 106.19928 13694 ft 383 kts 305°
2026-05-07 08:46 11.02357 106.17588 13759 ft 385 kts 298°
2026-05-07 08:47 11.03493 106.15104 14051 ft 389 kts 294°
2026-05-07 08:47 11.04521 106.12544 14546 ft 391 kts 292°
2026-05-07 08:47 11.05504 106.09956 15011 ft 393 kts 292°
2026-05-07 08:47 11.06482 106.07350 15452 ft 396 kts 292°
2026-05-07 08:48 11.07475 106.04725 15885 ft 399 kts 292°
2026-05-07 08:48 11.08488 106.02086 16326 ft 402 kts 292°
2026-05-07 08:48 11.09519 105.99433 16750 ft 404 kts 292°
2026-05-07 08:48 11.10386 105.96696 17125 ft 408 kts 282°
2026-05-07 08:49 11.10668 105.93822 17558 ft 410 kts 269°
2026-05-07 08:49 11.10524 105.90913 18002 ft 412 kts 264°
2026-05-07 08:49 11.10196 105.88009 18373 ft 414 kts 262°
2026-05-07 08:49 11.09769 105.85097 18739 ft 416 kts 261°
2026-05-07 08:50 11.09306 105.82185 19117 ft 418 kts 260°
2026-05-07 08:50 11.08836 105.79255 19504 ft 420 kts 261°
2026-05-07 08:50 11.08376 105.76306 19885 ft 422 kts 261°
2026-05-07 08:50 11.07929 105.73344 20262 ft 425 kts 261°
2026-05-07 08:51 11.07697 105.70344 20634 ft 427 kts 270°
2026-05-07 08:51 11.07946 105.67326 21012 ft 430 kts 281°
2026-05-07 08:51 11.08665 105.64365 21382 ft 432 kts 287°
2026-05-07 08:51 11.09574 105.61441 21746 ft 435 kts 289°
2026-05-07 08:52 11.10581 105.58528 22126 ft 437 kts 290°
2026-05-07 08:52 11.11632 105.55614 22506 ft 439 kts 291°
2026-05-07 08:52 11.12692 105.52691 22878 ft 441 kts 291°
2026-05-07 08:52 11.13752 105.49749 23247 ft 444 kts 290°
2026-05-07 08:53 11.14805 105.46789 23559 ft 446 kts 290°
2026-05-07 08:53 11.15838 105.43851 23857 ft 448 kts 290°
2026-05-07 08:53 11.16883 105.40860 24157 ft 449 kts 290°
2026-05-07 08:53 11.17928 105.37855 24457 ft 451 kts 290°
2026-05-07 08:54 11.18978 105.34832 24749 ft 454 kts 290°
2026-05-07 08:54 11.20030 105.31799 25117 ft 455 kts 290°
2026-05-07 08:54 11.21085 105.28758 25467 ft 457 kts 290°
2026-05-07 08:54 11.22145 105.25705 25858 ft 458 kts 290°
2026-05-07 08:55 11.23211 105.22635 26185 ft 461 kts 290°
2026-05-07 08:55 11.24283 105.19546 26550 ft 464 kts 290°
2026-05-07 08:55 11.25361 105.16441 26903 ft 466 kts 290°
2026-05-07 08:55 11.26445 105.13316 27251 ft 469 kts 290°
2026-05-07 08:56 11.27530 105.10186 27665 ft 470 kts 290°
2026-05-07 08:56 11.28621 105.07039 28075 ft 471 kts 290°
2026-05-07 08:56 11.29712 105.03888 28483 ft 473 kts 290°
2026-05-07 08:56 11.30810 105.00718 28790 ft 476 kts 290°
2026-05-07 08:57 11.31913 104.97534 29126 ft 479 kts 290°
2026-05-07 08:57 11.33022 104.94327 29471 ft 480 kts 290°
2026-05-07 08:57 11.34242 104.91154 29846 ft 482 kts 296°
2026-05-07 08:57 11.35827 104.88140 30094 ft 484 kts 301°
2026-05-07 08:58 11.37550 104.85183 30376 ft 486 kts 302°
2026-05-07 08:58 11.39328 104.82250 30674 ft 487 kts 303°
2026-05-07 08:58 11.41137 104.79319 30935 ft 489 kts 303°
2026-05-07 08:58 11.42957 104.76385 31216 ft 491 kts 303°
2026-05-07 08:59 11.44782 104.73441 31505 ft 492 kts 303°
2026-05-07 08:59 11.46609 104.70483 31740 ft 494 kts 302°
2026-05-07 08:59 11.48438 104.67513 31997 ft 495 kts 302°
2026-05-07 08:59 11.50268 104.64533 32260 ft 497 kts 302°
2026-05-07 09:00 11.52037 104.61647 32482 ft 498 kts 302°
2026-05-07 09:00 11.53875 104.58646 32712 ft 499 kts 302°
2026-05-07 09:00 11.55717 104.55637 32930 ft 501 kts 302°
2026-05-07 09:00 11.57538 104.52662 33144 ft 502 kts 302°
2026-05-07 09:01 11.59390 104.49636 33356 ft 503 kts 302°
2026-05-07 09:01 11.61245 104.46604 33601 ft 504 kts 302°
2026-05-07 09:01 11.63099 104.43574 33868 ft 503 kts 302°
2026-05-07 09:01 11.64946 104.40553 34176 ft 501 kts 302°
2026-05-07 09:02 11.66787 104.37541 34481 ft 499 kts 302°
2026-05-07 09:02 11.68617 104.34547 34828 ft 496 kts 302°
2026-05-07 09:02 11.70438 104.31566 35079 ft 495 kts 302°
2026-05-07 09:02 11.72254 104.28593 35393 ft 492 kts 302°
2026-05-07 09:03 11.74062 104.25633 35621 ft 492 kts 302°
2026-05-07 09:03 11.75877 104.22662 35768 ft 493 kts 302°
2026-05-07 09:03 11.77691 104.19691 35998 ft 492 kts 302°
2026-05-07 09:03 11.79503 104.16727 36281 ft 491 kts 302°
2026-05-07 09:04 11.81305 104.13776 36475 ft 491 kts 302°
2026-05-07 09:04 11.83108 104.10817 36670 ft 490 kts 302°
2026-05-07 09:04 11.84901 104.07871 36963 ft 488 kts 302°
2026-05-07 09:04 11.86689 104.04930 37173 ft 487 kts 302°
2026-05-07 09:05 11.88477 104.01992 37353 ft 488 kts 302°
2026-05-07 09:05 11.90268 103.99048 37514 ft 487 kts 302°
2026-05-07 09:05 11.92057 103.96114 37737 ft 486 kts 302°
2026-05-07 09:05 11.93847 103.93175 37794 ft 489 kts 302°
2026-05-07 09:06 11.97428 103.87276 37802 ft 489 kts 302°
2026-05-07 09:06 12.01013 103.81368 37802 ft 490 kts 302°
2026-05-07 09:07 12.04579 103.75496 37810 ft 489 kts 302°
2026-05-07 09:07 12.08163 103.69590 37810 ft 490 kts 302°
2026-05-07 09:08 12.11744 103.63684 37817 ft 489 kts 302°
2026-05-07 09:08 12.15330 103.57768 37804 ft 490 kts 302°
2026-05-07 09:09 12.18912 103.51855 37805 ft 489 kts 302°
2026-05-07 09:09 12.22493 103.45940 37815 ft 490 kts 301°
2026-05-07 09:10 12.26091 103.39990 37807 ft 493 kts 301°
2026-05-07 09:10 12.29695 103.34028 37801 ft 493 kts 302°
2026-05-07 09:11 12.33307 103.28052 37802 ft 494 kts 302°
2026-05-07 09:11 12.36914 103.22080 37801 ft 494 kts 302°
2026-05-07 09:12 12.40517 103.16108 37805 ft 493 kts 302°
2026-05-07 09:12 12.44118 103.10136 37801 ft 494 kts 302°
2026-05-07 09:13 12.47724 103.04152 37801 ft 494 kts 301°
2026-05-07 09:13 12.51322 102.98179 37798 ft 493 kts 301°
2026-05-07 09:14 12.54912 102.92215 37798 ft 492 kts 301°
2026-05-07 09:14 12.58497 102.86255 37804 ft 491 kts 301°
2026-05-07 09:15 12.62046 102.80350 37795 ft 492 kts 301°
2026-05-07 09:15 12.65627 102.74390 37797 ft 492 kts 301°
2026-05-07 09:16 12.69187 102.68461 37796 ft 492 kts 301°
2026-05-07 09:16 12.72766 102.62495 37799 ft 492 kts 301°
2026-05-07 09:17 12.76367 102.56490 37794 ft 491 kts 301°
2026-05-07 09:17 12.79456 102.50315 37798 ft 490 kts 292°
2026-05-07 09:18 12.81989 102.43783 37803 ft 490 kts 290°
2026-05-07 09:18 12.84337 102.37274 37801 ft 490 kts 289°
2026-05-07 09:19 12.86695 102.30700 37804 ft 487 kts 290°
2026-05-07 09:19 12.89034 102.24232 37805 ft 487 kts 290°
2026-05-07 09:20 12.91415 102.17678 37799 ft 487 kts 290°
2026-05-07 09:20 12.93759 102.11222 37800 ft 487 kts 290°
2026-05-07 09:21 12.96119 102.04715 37804 ft 487 kts 290°
2026-05-07 09:21 12.98483 101.98190 37799 ft 490 kts 290°
2026-05-07 09:22 13.00855 101.91637 37798 ft 491 kts 290°
2026-05-07 09:22 13.03230 101.85073 37793 ft 491 kts 290°
2026-05-07 09:23 13.05601 101.78508 37791 ft 491 kts 290°
2026-05-07 09:23 13.07972 101.71942 37790 ft 491 kts 290°
2026-05-07 09:24 13.10340 101.65377 37785 ft 491 kts 290°
2026-05-07 09:24 13.12715 101.58787 37788 ft 493 kts 290°
2026-05-07 09:25 13.15093 101.52180 37788 ft 494 kts 290°
2026-05-07 09:25 13.17070 101.46686 37786 ft 494 kts 290°
2026-05-07 09:26 13.19448 101.40073 37788 ft 494 kts 290°
2026-05-07 09:26 13.21821 101.33467 37790 ft 494 kts 290°
2026-05-07 09:27 13.24195 101.26849 37788 ft 493 kts 290°
2026-05-07 09:28 13.27719 101.17017 37787 ft 486 kts 290°
2026-05-07 09:28 13.30048 101.10508 37788 ft 486 kts 290°
2026-05-07 09:29 13.32377 101.03995 37782 ft 486 kts 290°
2026-05-07 09:29 13.34698 100.97500 37789 ft 485 kts 290°
2026-05-07 09:30 13.36964 100.91154 37789 ft 486 kts 290°
2026-05-07 09:30 13.39289 100.84635 37795 ft 486 kts 290°
2026-05-07 09:31 13.41609 100.78127 37795 ft 485 kts 290°
2026-05-07 09:31 13.43928 100.71614 37794 ft 486 kts 290°
2026-05-07 09:32 13.46247 100.65094 37794 ft 486 kts 290°
2026-05-07 09:32 13.48564 100.58576 37796 ft 485 kts 290°
2026-05-07 09:33 13.50882 100.52047 37793 ft 488 kts 290°
2026-05-07 09:33 13.53213 100.45475 37794 ft 490 kts 290°
2026-05-07 09:34 13.55544 100.38899 37784 ft 489 kts 290°
2026-05-07 09:34 13.57872 100.32325 37781 ft 490 kts 290°
2026-05-07 09:35 13.60202 100.25738 37780 ft 490 kts 289°
2026-05-07 09:35 13.62525 100.19165 37777 ft 489 kts 290°
2026-05-07 09:36 13.64852 100.12574 37780 ft 492 kts 290°
2026-05-07 09:36 13.67181 100.05971 37778 ft 490 kts 290°
2026-05-07 09:37 13.69497 99.99403 37776 ft 488 kts 290°
2026-05-07 09:37 13.71810 99.92834 37776 ft 490 kts 290°
2026-05-07 09:38 13.74109 99.86296 37769 ft 489 kts 290°
2026-05-07 09:38 13.76417 99.79729 37766 ft 489 kts 291°
2026-05-07 09:39 13.78730 99.73142 37769 ft 490 kts 291°
2026-05-07 09:39 13.81044 99.66544 37769 ft 490 kts 291°
2026-05-07 09:40 13.83352 99.59958 37765 ft 490 kts 291°
2026-05-07 09:40 13.85664 99.53354 37773 ft 491 kts 291°
2026-05-07 09:41 13.87975 99.46748 37775 ft 490 kts 291°
2026-05-07 09:41 13.90283 99.40147 37768 ft 491 kts 291°
2026-05-07 09:42 13.92598 99.33521 37775 ft 492 kts 291°
2026-05-07 09:42 13.94907 99.26894 37775 ft 491 kts 291°
2026-05-07 09:43 13.97215 99.20265 37787 ft 492 kts 291°
2026-05-07 09:43 13.99520 99.13640 37788 ft 492 kts 291°
2026-05-07 09:44 14.01827 99.07004 37804 ft 492 kts 291°
2026-05-07 09:44 14.04131 99.00337 37798 ft 496 kts 289°
2026-05-07 09:45 14.05479 98.93384 37814 ft 498 kts 278°
2026-05-07 09:45 14.06047 98.86285 37810 ft 497 kts 275°
2026-05-07 09:46 14.06453 98.79181 37820 ft 497 kts 275°
2026-05-07 09:46 14.06869 98.72080 37822 ft 497 kts 275°
2026-05-07 09:47 14.07315 98.64966 37821 ft 499 kts 275°
2026-05-07 09:47 14.07773 98.57831 37825 ft 500 kts 275°
2026-05-07 09:48 14.08232 98.50679 37826 ft 500 kts 275°
2026-05-07 09:48 14.08687 98.43531 37820 ft 500 kts 275°
2026-05-07 09:49 14.09138 98.36384 37820 ft 500 kts 275°
2026-05-07 09:49 14.09588 98.29226 37810 ft 502 kts 275°
2026-05-07 09:50 14.10094 98.22045 37810 ft 503 kts 279°
2026-05-07 09:50 14.11521 98.15054 37804 ft 503 kts 285°
2026-05-07 09:51 14.13245 98.08081 37801 ft 502 kts 286°
2026-05-07 09:51 14.15018 98.01114 37799 ft 503 kts 286°
2026-05-07 09:52 14.16780 97.94144 37798 ft 502 kts 285°
2026-05-07 09:52 14.18527 97.87168 37799 ft 503 kts 285°
2026-05-07 09:53 14.20270 97.80184 37799 ft 503 kts 285°
2026-05-07 09:53 14.22009 97.73206 37800 ft 503 kts 285°
2026-05-07 09:54 14.23748 97.66219 37798 ft 503 kts 285°
2026-05-07 09:54 14.25485 97.59234 37802 ft 503 kts 285°
2026-05-07 09:55 14.27218 97.52258 37801 ft 501 kts 285°
2026-05-07 09:55 14.28942 97.45307 37801 ft 500 kts 285°
2026-05-07 09:56 14.30661 97.38370 37802 ft 500 kts 285°
2026-05-07 09:56 14.32379 97.31424 37801 ft 500 kts 285°
2026-05-07 09:57 14.34094 97.24482 37799 ft 500 kts 285°
2026-05-07 09:57 14.35807 97.17536 37800 ft 500 kts 285°
2026-05-07 09:58 14.37520 97.10586 37801 ft 500 kts 285°
2026-05-07 09:58 14.39229 97.03641 37802 ft 500 kts 285°
2026-05-07 09:59 14.40936 96.96693 37803 ft 500 kts 285°
2026-05-07 09:59 14.42641 96.89745 37800 ft 500 kts 285°
2026-05-07 10:00 14.44345 96.82793 37802 ft 500 kts 284°
2026-05-07 10:00 14.46048 96.75835 37805 ft 500 kts 284°
2026-05-07 10:01 14.47748 96.68876 37803 ft 500 kts 284°
2026-05-07 10:01 14.49443 96.61934 37800 ft 496 kts 284°
2026-05-07 10:02 14.51109 96.55100 37801 ft 494 kts 284°
2026-05-07 10:02 14.52780 96.48233 37800 ft 493 kts 284°
2026-05-07 10:03 14.54449 96.41368 37801 ft 493 kts 284°
2026-05-07 10:03 14.56115 96.34507 37802 ft 493 kts 284°
2026-05-07 10:04 14.57777 96.27650 37801 ft 493 kts 284°
2026-05-07 10:04 14.59438 96.20789 37801 ft 493 kts 284°
2026-05-07 10:05 14.61097 96.13930 37801 ft 493 kts 284°
2026-05-07 10:05 14.62754 96.07067 37803 ft 492 kts 284°
2026-05-07 10:06 14.64409 96.00202 37801 ft 492 kts 284°
2026-05-07 10:06 14.66060 95.93346 37801 ft 492 kts 284°
2026-05-07 10:07 14.67709 95.86488 37804 ft 492 kts 284°
2026-05-07 10:07 14.69355 95.79634 37804 ft 492 kts 284°
2026-05-07 10:08 14.70988 95.72821 37807 ft 492 kts 284°
2026-05-07 10:08 14.72631 95.65960 37801 ft 492 kts 284°
2026-05-07 10:09 14.74272 95.59102 37801 ft 492 kts 284°
2026-05-07 10:09 14.75909 95.52246 37801 ft 492 kts 284°
2026-05-07 10:10 14.77545 95.45383 37804 ft 492 kts 284°
2026-05-07 10:10 14.79180 95.38519 37804 ft 492 kts 284°
2026-05-07 10:11 14.80812 95.31658 37800 ft 492 kts 284°
2026-05-07 10:11 14.82443 95.24788 37801 ft 492 kts 284°
2026-05-07 10:12 14.84074 95.17914 37804 ft 493 kts 284°